User: anonymous   Login
Location: Byszew
(52.1813°N, 19.2693°E)
Time: 17:33:21
(UTC+00:00)
Language:

Cosmos 1339 Rocket - Orbit

View from above orbital plane
View from above orbital plane
View from above satellite
View from above satellite

Ground track
Ground track

The orbit data is extracted from the following two-line orbital elements,

1 13066U 82012B   21127.86235729  .00000007  00000-0 -81453-5 0  9998
2 13066  82.8987 237.1997 0042838 219.8071 257.9841 13.77192330970492
Epoch (UTC): 07 May 2021 20:41:47
Eccentricity: 0.0042838
inclination: 82.8987°
perigee height: 942 km
apogee height: 1005 km
right ascension of ascending node: 237.1997°
argument of perigee: 219.8071°
revolutions per day: 13.77192330
mean anomaly at epoch: 257.9841°
orbit number at epoch: 97049

The dashed part of the orbit path shows where the satellite is in the earth's shadow,  

DLR